Time,TemperatureF,DewpointF,PressureIn,WindDirection,WindDirectionDegrees,WindSpeedMPH,WindSpeedGustMPH,Humidity,HourlyPrecipIn,Conditions,Clouds,dailyrainin,SolarRadiationWatts/m^2,SoftwareType,DateUTC
2013-12-14 00:00:00,40.0,28.0,30.28,North,359,4.0,-999.0,61,0.00,,,-99.99,-2.400000,,2013-12-14 08:00:00,
2013-12-14 00:42:00,40.0,28.0,30.28,North,359,4.0,-999.0,61,0.00,,,-99.99,-2.400000,,2013-12-14 08:42:00,
2013-12-14 00:52:00,40.0,28.0,30.28,North,359,4.0,-999.0,61,0.00,,,-99.99,-2.400000,,2013-12-14 08:52:00,
2013-12-14 05:00:00,33.0,27.0,30.30,NNE,23,3.0,-999.0,77,0.00,,,-99.99,-1.500000,,2013-12-14 13:00:00,
2013-12-14 05:42:00,33.0,27.0,30.30,NNE,23,3.0,-999.0,77,0.00,,,-99.99,-1.500000,,2013-12-14 13:42:00,
2013-12-14 05:52:00,33.0,27.0,30.30,NNE,23,3.0,-999.0,77,0.00,,,-99.99,-1.500000,,2013-12-14 13:52:00,
2013-12-14 09:00:00,39.0,26.0,30.35,NNE,12,5.0,-999.0,59,0.00,,,-99.99,57.099998,,2013-12-14 17:00:00,
2013-12-14 09:42:00,39.0,26.0,30.35,NNE,12,5.0,-999.0,59,0.00,,,-99.99,57.099998,,2013-12-14 17:42:00,
2013-12-14 09:53:00,39.0,26.0,30.35,NNE,12,5.0,-999.0,59,0.00,,,-99.99,57.099998,,2013-12-14 17:53:00,
2013-12-14 10:00:00,46.0,29.0,30.38,NE,56,3.0,-999.0,51,0.00,,,-99.99,296.100006,,2013-12-14 18:00:00,
2013-12-14 10:42:00,46.0,29.0,30.38,NE,56,3.0,-999.0,51,0.00,,,-99.99,296.100006,,2013-12-14 18:42:00,
2013-12-14 10:52:00,46.0,29.0,30.38,NE,56,3.0,-999.0,51,0.00,,,-99.99,296.100006,,2013-12-14 18:52:00,
2013-12-14 11:00:00,53.0,30.0,30.37,North,3,1.0,-999.0,42,0.00,,,-99.99,387.700012,,2013-12-14 19:00:00,
2013-12-14 11:42:00,53.0,30.0,30.37,North,3,1.0,-999.0,42,0.00,,,-99.99,387.700012,,2013-12-14 19:42:00,
2013-12-14 11:52:00,53.0,30.0,30.37,North,3,1.0,-999.0,42,0.00,,,-99.99,387.700012,,2013-12-14 19:52:00,
2013-12-14 12:00:00,56.0,28.0,30.36,West,260,1.0,-999.0,34,0.00,,,-99.99,458.700012,,2013-12-14 20:00:00,
2013-12-14 12:42:00,56.0,28.0,30.36,West,260,1.0,-999.0,34,0.00,,,-99.99,458.700012,,2013-12-14 20:42:00,
2013-12-14 12:53:00,56.0,28.0,30.36,West,260,1.0,-999.0,34,0.00,,,-99.99,458.700012,,2013-12-14 20:53:00,
2013-12-14 13:00:00,58.0,27.0,30.33,West,266,2.0,-999.0,30,0.00,,,-99.99,337.299988,,2013-12-14 21:00:00,
2013-12-14 13:44:00,58.0,27.0,30.33,West,266,2.0,-999.0,30,0.00,,,-99.99,337.299988,,2013-12-14 21:44:00,
2013-12-14 13:54:00,58.0,27.0,30.33,West,266,2.0,-999.0,30,0.00,,,-99.99,337.299988,,2013-12-14 21:54:00,
2013-12-14 14:00:00,58.0,29.0,30.31,NNW,330,0.0,-999.0,32,0.00,,,-99.99,185.000000,,2013-12-14 22:00:00,
2013-12-14 14:43:00,58.0,29.0,30.31,NNW,330,0.0,-999.0,32,0.00,,,-99.99,185.000000,,2013-12-14 22:43:00,
2013-12-14 14:52:00,58.0,29.0,30.31,NNW,330,0.0,-999.0,32,0.00,,,-99.99,185.000000,,2013-12-14 22:52:00,
2013-12-14 16:00:00,56.0,29.0,30.30,SW,230,1.0,-999.0,35,0.00,,,-99.99,90.699997,,2013-12-15 00:00:00,
2013-12-14 16:42:00,56.0,29.0,30.30,SW,230,1.0,-999.0,35,0.00,,,-99.99,90.699997,,2013-12-15 00:42:00,
2013-12-14 16:52:00,56.0,29.0,30.30,SW,230,1.0,-999.0,35,0.00,,,-99.99,90.699997,,2013-12-15 00:52:00,
2013-12-14 17:00:00,49.0,34.0,30.30,North,354,0.0,-999.0,56,0.00,,,-99.99,23.700001,,2013-12-15 01:00:00,
2013-12-14 17:52:00,49.0,34.0,30.30,North,354,0.0,-999.0,56,0.00,,,-99.99,23.700001,,2013-12-15 01:52:00,
2013-12-14 19:00:00,-999.0,-99.9,30.33,North,353,3.0,-999.0,75,0.00,,,-99.99,-1.300000,,2013-12-15 03:00:00,
2013-12-14 19:54:00,40.0,33.0,30.33,North,353,3.0,-999.0,75,0.00,,,-99.99,-1.300000,,2013-12-15 03:54:00,
2013-12-14 20:00:00,43.0,33.0,30.34,NNE,32,1.0,-999.0,66,0.00,,,-99.99,-0.900000,,2013-12-15 04:00:00,
2013-12-14 20:43:00,43.0,33.0,30.34,NNE,32,1.0,-999.0,66,0.00,,,-99.99,-0.900000,,2013-12-15 04:43:00,
2013-12-14 20:53:00,43.0,33.0,30.34,NNE,32,1.0,-999.0,66,0.00,,,-99.99,-0.900000,,2013-12-15 04:53:00,